Flag Weather past 2 weeks in San Juan, Puerto Rico

Now
74 °F

Passing clouds.


Feels Like: 72 °F
Forecast: 75 / 84 °F
Wind: No wind

Location: Luis Munoz Marin

Current Time: Nov 28, 2014 at 3:35:32 AM

Latest Report: Nov 28, 2014 at 2:56 AM


Visibility: 10 mi

Pressure: 29.92 "Hg

Humidity: 91%

Dew point: 71 °F

Location of San JuanLocation

Historic Weather in San Juan — Graph

°F

San Juan temperature yesterday

Maximum temperature yesterday: 85 °F (at 1:56 PM)
Minimum temperature yesterday: 74 °F (at 5:56 AM)
Average temperature yesterday: 79 °F

Past Weeks' High & Low Weather Summary

 TemperatureHumidityPressure
High89 °F (Nov 15, 12:56 PM)100% (Nov 22, 1:56 AM)30.09 "Hg (Nov 22, 1:56 AM)
Low74 °F (Nov 27, 5:56 AM)61% (Nov 20, 11:56 AM)29.87 "Hg (Nov 13, 3:56 PM)
Average80 °F82%29.99 "Hg
* Reported Nov 13 1:56 AM — Nov 28 1:56 AM, San Juan, Weather by CustomWeather, © 2014

Note: Actual official high and low records may vary slightly from our data, if they occured in-between our weather recording intervals... More about our weather records

Advertising

San Juan weather history for previous 24 hours

 ConditionsComfort  
Time TempWeatherWind HumidityBarometerVisibility
1:56 AM
Nov 28
75 °FClear.No wind88%29.94 "Hg10 mi
12:56 AM75 °FClear.No wind88%29.95 "Hg10 mi
11:56 PM
Nov 27
76 °FClear.No wind85%29.96 "Hg10 mi
10:56 PM77 °FClear.No wind79%29.97 "Hg10 mi
9:56 PM77 °FClear.No wind79%29.97 "Hg10 mi
8:56 PM78 °FClear.No wind79%29.96 "Hg10 mi
7:56 PM78 °FClear.3 mph79%29.95 "Hg10 mi
6:56 PM78 °FPassing clouds.6 mph79%29.94 "Hg10 mi
5:56 PM80 °FScattered clouds.8 mph76%29.93 "Hg10 mi
4:56 PM82 °FScattered clouds.10 mph67%29.93 "Hg10 mi
3:56 PM83 °FScattered clouds.9 mph65%29.92 "Hg10 mi
2:56 PM84 °FScattered clouds.10 mph63%29.92 "Hg10 mi
1:56 PM85 °FScattered clouds.10 mph61%29.93 "Hg10 mi
12:56 PM84 °FScattered clouds.12 mph65%29.95 "Hg10 mi
11:56 AM82 °FScattered clouds.12 mph70%29.98 "Hg10 mi
10:56 AM83 °FScattered clouds.8 mph68%30.00 "Hg10 mi
9:56 AM83 °FPassing clouds.6 mph70%30.02 "Hg10 mi
8:56 AM80 °FScattered clouds.3 mph71%30.01 "Hg10 mi
7:56 AM78 °FScattered clouds.No wind76%30.00 "Hg10 mi
6:56 AM74 °FPassing clouds.No wind88%29.99 "Hg10 mi
5:56 AM74 °FPassing clouds.No wind91%29.98 "Hg10 mi
4:56 AM75 °FPassing clouds.5 mph90%29.97 "Hg10 mi
3:56 AM76 °FPassing clouds.5 mph85%29.97 "Hg10 mi
Weather by CustomWeather, © 2014

See weather overviewHow to use our weather pages